SCP
0 0 0 0 0 0 -0 -0 0 0 0 0 0 0 -0 0 0 -0 0 0 0 0 0 -0 -0 -0 0 0 0 0 0 0 0 0 0 0 0 0 0 0 0 0 0 0
0 0 0 0 -0 0 0 0 0 0 0 0 0 0 0 0 0 0 0 -0 -0 -0 0 -0 -0 -0 0 0 0 0 0 0 0 0 0 0 0 0 0 0 0 0 0 0
0 0 0 0 0 0 0 0 0 0 0 0 0 0 0 0 0 0 -0 -0 -0 -0 0 0 -0 0 0 0 0 0 0 0 0 0 0 0 0 0 0 0 0 0 0 0
0 0 0 0 0 0 0 0 0 0 0 0 0 0 0 0 0 0 -0 -0 -0 -0 0 -0 -0 0 0 0 0 0 0 0 0 0 0 0 0 0 0 0 0 0 0 0
0 0 0 -0 0 0 0 0 0 -0 0 0 0 0 0 0 0 0 0 -0 -0 -0 0 0 0 0 0 0 0 0 0 0 0 0 0 0 0 0 0 0 0 0 0 0
0 0 0 0 0 0 0 0 0 0 0 0 0 0 0 0 0 0 0 0 0 0 0 0 0 0 0 0 0 0 0 0 0 0 0 0 0 0 0 0 0 0 0 0
0 0 0 0 0 0 -0 -0 0 0 0 0 0 0 0 0 0 0 0 0 0 0 0 0 0 0 0 0 0 0 0 0 0 0 0 0 0 0 0 0 0 0 0 0
0 0 0 0 0 0 0 0 0 0 0 0 0 0 0 -0 0 0 0 0 0 0 0 0 0 0 0 0 0 0 0 0 0 0 0 0 0 0 0 0 0 0 0 0
0 0 0 0 0 0 -0 0 0 0 0 0 0 0 0 0 0 0 0 0 0 0 0 0 0 0 0 0 0 0 0 0 0 0 0 0 0 0 0 0 0 0 0 0
0 0 0 0 0 0 0 0 0 0 0 0 0 0 0 0 0 0 0 0 0 0 0 0 0 0 0 0 0 0 0 0 0 0 0 0 0 0 0 0 0 0 0 0
0 0 0 0 0 0 0 0 0 0 0 0 0 0 0 0 0 0 0 0 0 0 0 0 0 0 0 0 0 0 0 0 0 0 0 0 0 0 0 0 0 0 0 0
0 0 0 0 0 0 0 0 0 0 0 0 0 0 0 0 0 0 0 0 0 0 0 0 0 0 0 0 0 0 0 0 0 0 0 0 0 0 0 0 0 0 0 0
0 0 0 0 0 0 0 0 0 0 0 0 0 0 0 0 0 0 0 0 0 0 0 0 0 0 0 0 0 0 0 0 0 0 0 0 0 0 0 0 0 0 0 0
0 0 0 0 0 0 0 0 0 0 0 0 0 0 0 0 0 0 0 0 0 0 0 0 0 0 0 0 0 0 0 0 0 0 0 0 0 0 0 0 0 0 0 0
0 0 0 0 0 0 0 0 0 0 0 0 0 0 0 0 0 0 0 0 0 0 0 0 0 0 0 0 0 0 0 0 0 0 0 0 0 0 0 0 0 0 0 0
0 0 0 0 0 0 0 0 0 0 0 0 0 0 0 0 0 0 0 0 0 0 0 0 0 0 0 0 0 0 0 0 0 0 0 0 0 0 0 0 0 0 0 0
0 0 0 0 0 0 0 0 0 0 0 0 0 0 0 0 0 0 0 0 0 0 0 0 0 0 0 0 0 0 0 0 0 0 0 0 0 0 0 0 0 0 0 0
0 0 0 0 0 0 0 0 0 0 0 0 0 0 0 0 0 0 0 0 0 0 0 0 0 0 0 0 0 0 0 0 0 0 0 0 0 0 0 0 0 0 0 0
0 0 0 0 0 0 0 0 0 0 0 0 0 0 0 0 0 0 0 0 0 0 0 0 0 0 0 0 0 0 0 0 0 0 0 0 0 0 0 0 0 0 0 0
0 0 0 0 0 0 0 0 0 0 0 0 0 0 0 0 0 0 0 0 0 0 0 0 0 0 0 0 0 0 0 0 0 0 0 0 0 0 0 0 0 0 0 0
0 0 0 0 0 0 0 0 0 0 0 0 0 0 0 0 0 0 0 0 0 0 0 0 0 0 0 0 0 0 0 0 0 0 0 0 0 0 0 0 0 0 0 0
0 0 0 0 0 0 0 0 0 0 0 0 0 0 0 0 0 0 0 0 0 0 0 0 0 0 0 0 0 0 0 0 0 0 0 0 0 0 0 0 0 0 0 0
0 0 0 0 0 0 0 0 0 0 0 0 0 0 0 0 0 0 0 0 0 0 0 0 0 0 0 0 0 0 0 0 0 0 0 0 0 0 0 0 0 0 0 0
0 0 0 0 0 0 0 0 0 0 0 0 0 0 0 0 0 0 0 0 0 0 0 0 0 0 0 0 0 0 0 0 0 0 0 0 0 0 0 0 0 0 0 -0
0 0 0 0 0 0 0 0 0 0 0 0 0 0 0 0 0 0 0 0 0 0 0 0 0 0 0 0 0 0 0 0 0 0 0 0 0 0 0 0 0 0 0 0
0 0 0 0 0 0 0 0 0 0 0 0 0 0 0 0 0 0 0 0 0 0 0 0 0 0 0 0 0 0 0 0 0 0 0 0 0 0 0 0 0 0 0 0
Wind_Speed_500mb
11 11 8 18 14 10 11 14 13 6 12 10 3 7 12 42 51 56 57 68 66 59 42 29 29 36 47 51 44 34 32 32 23 29 32 31 30 36 39 45 53 56 54 49
12 10 20 16 10 15 16 16 12 6 6 7 9 14 10 21 29 61 62 63 64 59 47 40 42 53 60 53 41 39 35 25 22 34 31 28 37 45 56 54 53 48 46 54
11 17 9 7 12 17 8 12 1 6 11 6 9 12 8 10 38 42 45 51 60 61 47 44 60 55 57 55 50 45 35 28 28 27 28 38 48 58 61 59 55 50 55 54
10 7 15 17 11 9 8 6 6 10 10 5 8 3 6 7 15 27 38 48 58 47 34 43 56 56 57 52 42 38 32 23 16 28 41 51 52 52 47 49 52 53 55 61
11 8 15 14 4 5 6 6 6 6 5 7 4 11 12 4 11 9 25 34 40 33 35 39 44 40 31 30 35 33 19 12 24 38 46 45 38 40 46 48 45 51 59 52
9 20 9 11 10 11 4 13 17 10 6 6 8 9 6 3 7 4 28 27 23 23 34 37 39 31 27 26 25 13 11 21 31 32 30 33 42 47 47 42 50 57 52 51
12 8 3 14 11 14 22 16 10 12 11 8 7 11 11 5 11 19 24 28 29 27 37 44 44 36 29 30 16 9 15 22 18 20 33 43 49 45 43 50 57 49 52 54
7 9 7 5 9 6 8 12 9 1 3 11 13 6 8 13 18 25 33 30 30 33 31 39 40 34 33 19 11 13 14 11 19 33 43 49 46 45 51 56 53 51 57 64
6 5 6 10 7 12 8 7 9 9 3 4 5 5 10 11 14 26 25 23 20 33 25 34 34 29 19 17 11 6 11 23 34 45 51 48 44 47 49 47 53 61 67 72
3 4 5 6 20 6 9 5 8 8 2 5 9 6 8 11 14 10 20 40 36 29 32 29 29 26 14 5 8 15 24 31 39 46 48 44 42 47 51 53 59 66 65 48
10 8 11 8 4 8 8 5 11 9 8 7 4 10 11 16 16 15 21 28 24 17 19 23 22 12 10 11 14 20 25 35 46 49 49 44 51 57 48 57 57 43 41 38
3 10 4 5 9 4 9 9 10 10 11 3 8 12 11 17 33 29 21 15 10 16 17 25 13 6 7 12 18 26 37 48 55 51 48 51 52 51 45 42 40 43 45 43
6 4 6 14 14 10 9 2 7 9 6 10 11 12 2 17 15 24 35 30 29 29 24 18 9 4 13 20 28 35 46 55 52 51 55 53 57 47 44 39 42 50 48 46
9 7 12 14 11 5 7 8 8 10 7 7 11 13 9 12 16 23 20 30 36 30 25 12 5 13 21 27 34 43 52 53 54 56 53 57 47 43 38 38 49 54 45 39
9 6 3 3 4 4 5 11 13 7 12 10 15 15 12 15 17 24 23 43 35 30 16 6 11 19 27 34 42 50 51 54 59 53 55 55 35 37 34 42 56 45 36 34
6 4 3 7 10 13 11 14 15 11 5 5 15 8 8 9 25 18 42 34 28 19 8 7 14 27 29 35 46 49 54 58 57 54 62 46 33 32 36 50 49 38 32 33
8 9 6 7 8 10 8 11 12 5 11 6 9 4 6 8 12 24 32 26 17 0 10 14 23 26 33 37 42 47 53 57 55 59 60 33 29 33 38 52 40 34 34 30
11 11 6 8 6 4 9 3 1 20 9 12 14 14 7 23 24 34 22 6 3 13 19 27 25 27 32 34 38 42 50 53 54 62 39 26 30 34 46 48 38 36 30 27
13 9 5 6 4 10 3 9 6 4 5 3 10 9 25 19 13 7 5 10 15 21 26 30 27 28 31 29 36 43 47 52 57 50 29 27 32 38 52 42 39 33 25 23
13 11 10 4 6 11 10 7 9 5 9 14 8 6 8 6 6 10 13 21 25 27 30 31 28 28 29 28 32 40 50 55 52 31 25 28 34 44 45 38 34 32 23 15
3 2 11 7 6 12 11 20 1 7 13 7 9 18 4 6 7 6 11 18 22 29 31 31 33 28 27 27 33 40 49 52 44 24 22 28 31 47 36 30 30 23 16 8
13 11 6 6 4 12 7 9 10 10 4 9 19 18 7 5 2 9 15 32 40 35 32 37 35 30 24 23 31 42 48 49 34 18 20 30 38 38 30 34 20 17 13 10
1 12 11 14 11 9 4 2 7 2 9 10 11 10 14 19 27 36 35 27 24 34 36 36 35 33 22 23 32 41 46 44 25 15 23 31 41 26 31 29 19 12 13 15
10 3 6 7 9 15 25 14 8 13 19 13 14 18 18 24 31 31 30 35 36 39 30 38 39 33 24 21 34 41 47 36 19 13 26 31 24 22 31 33 23 17 17 20
2 6 6 3 9 26 20 14 10 4 8 10 10 16 18 22 26 35 38 37 41 46 34 33 37 31 21 25 31 37 41 26 16 16 26 34 15 18 29 31 25 25 27 29
5 7 6 8 2 13 12 12 7 5 5 10 10 15 19 25 31 37 40 41 46 54 40 32 35 31 22 25 26 32 32 19 16 24 31 17 16 17 20 26 31 30 29 27
Wind_Direction_500mb
355 52 275 273 228 204 113 73 72 19 356 80 8 278 328 109 119 142 153 172 181 189 177 182 204 199 191 194 209 215 223 233 249 267 286 299 288 305 304 306 306 304 302 304
7 281 240 239 214 83 70 58 358 270 30 87 359 8 34 61 123 146 162 178 185 183 186 196 194 195 199 199 207 217 220 239 285 274 273 283 305 315 315 319 323 321 316 315
169 236 216 90 34 81 57 93 51 220 340 340 60 27 44 42 107 135 159 172 182 182 192 196 190 180 197 199 207 214 215 286 288 255 293 308 312 315 328 327 325 323 319 321
208 228 85 77 69 118 47 310 25 347 39 284 86 256 334 53 57 123 152 169 177 181 190 195 199 213 199 207 208 223 252 262 272 302 310 311 322 324 319 320 319 319 320 321
281 96 95 81 141 87 252 9 328 296 236 66 31 78 279 333 49 29 131 161 175 173 185 192 195 195 196 198 217 224 233 286 317 313 316 322 319 315 316 316 314 320 324 321
200 128 102 153 42 67 348 15 22 33 79 45 345 132 303 298 167 45 69 100 139 180 185 185 169 169 186 187 193 212 297 299 306 315 318 316 317 320 320 315 320 325 325 326
3 353 64 76 50 20 52 46 354 9 11 237 338 65 218 231 172 134 118 120 134 154 172 185 191 196 207 184 189 239 278 301 296 305 310 319 323 323 317 319 324 328 329 329
103 8 7 10 116 107 72 116 138 299 298 282 337 88 232 221 99 87 85 137 133 162 165 174 183 182 173 177 198 252 267 276 309 315 323 330 329 320 319 323 327 324 323 321
100 12 5 119 86 107 322 24 180 113 11 31 287 359 5 59 70 89 86 98 129 151 177 178 171 171 178 192 220 264 302 314 322 326 330 328 319 318 324 326 324 317 316 319
192 78 38 352 74 35 128 177 26 16 311 313 312 224 223 181 173 133 111 109 104 107 107 142 162 163 172 228 284 292 303 316 324 329 329 322 319 322 322 320 320 317 319 323
112 102 291 43 35 211 0 20 61 111 130 165 313 276 218 198 180 155 134 130 136 128 127 142 150 169 223 252 280 304 319 330 331 331 329 320 318 322 320 317 324 336 333 330
57 133 142 193 278 186 164 173 126 117 269 183 155 274 294 187 173 149 146 138 103 86 102 138 145 184 259 300 312 324 328 330 330 331 329 324 327 326 330 341 342 338 331 324
186 30 46 353 351 351 49 344 121 119 79 205 141 264 338 84 122 140 126 123 124 132 137 142 148 320 315 316 320 324 327 330 331 330 328 328 330 330 338 338 335 337 333 329
96 112 152 187 205 190 327 313 305 123 122 220 218 250 187 184 164 162 153 124 129 129 123 106 5 335 319 320 323 327 331 330 329 329 329 330 332 331 339 333 339 337 335 337
89 108 94 181 295 356 291 286 302 289 215 157 252 194 184 193 190 179 160 143 128 125 110 49 343 335 324 326 328 330 329 329 329 328 327 331 336 338 337 336 339 339 341 346
28 198 85 341 339 5 316 326 327 282 237 22 71 122 244 143 143 126 145 136 134 128 65 353 340 346 325 327 331 331 329 328 327 324 328 331 336 341 336 339 340 337 344 346
123 122 84 279 331 341 2 331 300 3 27 127 82 280 102 105 124 132 144 146 139 96 329 322 337 344 335 327 328 328 326 326 323 323 329 338 344 341 338 342 344 346 346 344
136 124 113 204 25 356 240 240 278 100 68 60 50 37 128 132 135 144 151 162 270 309 315 311 319 326 320 322 321 321 324 324 324 328 335 341 342 339 342 343 342 339 342 348
142 118 90 129 181 277 293 15 358 37 345 315 132 156 129 150 167 195 277 314 321 310 298 299 301 304 310 314 320 324 324 324 328 334 344 341 338 341 343 344 343 343 343 348
49 74 118 151 133 237 235 258 266 214 287 223 39 38 310 172 28 263 286 285 290 281 285 281 278 291 300 307 322 326 324 328 334 341 347 337 338 343 342 343 341 345 351 351
148 116 179 168 201 278 224 220 9 107 242 262 337 307 19 136 190 320 310 327 313 286 279 261 263 278 286 306 324 325 329 333 340 348 349 337 345 343 347 353 350 9 9 31
184 146 181 99 143 278 199 124 167 222 187 343 12 13 62 96 27 346 346 329 330 313 274 258 254 265 277 303 324 329 333 338 343 1 351 344 347 347 359 352 358 13 30 85
253 178 181 167 211 256 176 46 162 340 76 55 25 359 338 327 332 337 335 336 346 348 284 253 256 263 273 308 326 333 340 343 353 9 350 351 345 3 11 16 25 41 63 95
343 125 80 87 325 269 260 220 176 117 90 80 17 7 8 354 339 336 337 328 323 326 309 267 256 260 279 317 331 335 343 350 15 3 353 351 358 28 30 29 37 67 75 93
249 52 133 341 344 75 87 122 139 78 37 12 12 346 349 346 345 343 338 324 316 320 316 273 256 262 282 324 331 338 347 360 19 350 353 351 17 39 32 37 57 78 85 87
168 177 145 200 167 128 119 108 86 54 47 71 48 17 6 358 352 346 341 328 320 312 287 259 254 257 292 318 327 341 350 13 14 358 357 18 45 44 49 55 68 87 95 88
Wind_Speed_850mb
11 11 8 18 14 10 11 14 13 6 12 10 3 7 12 42 51 56 57 68 66 59 42 29 29 36 47 51 44 34 32 32 23 29 32 31 30 36 39 45 53 56 54 49
12 10 20 16 10 15 16 16 12 6 6 7 9 14 10 21 29 61 62 63 64 59 47 40 42 53 60 53 41 39 35 25 22 34 31 28 37 45 56 54 53 48 46 54
11 17 9 7 12 17 8 12 1 6 11 6 9 12 8 10 38 42 45 51 60 61 47 44 60 55 57 55 50 45 35 28 28 27 28 38 48 58 61 59 55 50 55 54
10 7 15 17 11 9 8 6 6 10 10 5 8 3 6 7 15 27 38 48 58 47 34 43 56 56 57 52 42 38 32 23 16 28 41 51 52 52 47 49 52 53 55 61
11 8 15 14 4 5 6 6 6 6 5 7 4 11 12 4 11 9 25 34 40 33 35 39 44 40 31 30 35 33 19 12 24 38 46 45 38 40 46 48 45 51 59 52
9 20 9 11 10 11 4 13 17 10 6 6 8 9 6 3 7 4 28 27 23 23 34 37 39 31 27 26 25 13 11 21 31 32 30 33 42 47 47 42 50 57 52 51
12 8 3 14 11 14 22 16 10 12 11 8 7 11 11 5 11 19 24 28 29 27 37 44 44 36 29 30 16 9 15 22 18 20 33 43 49 45 43 50 57 49 52 54
7 9 7 5 9 6 8 12 9 1 3 11 13 6 8 13 18 25 33 30 30 33 31 39 40 34 33 19 11 13 14 11 19 33 43 49 46 45 51 56 53 51 57 64
6 5 6 10 7 12 8 7 9 9 3 4 5 5 10 11 14 26 25 23 20 33 25 34 34 29 19 17 11 6 11 23 34 45 51 48 44 47 49 47 53 61 67 72
3 4 5 6 20 6 9 5 8 8 2 5 9 6 8 11 14 10 20 40 36 29 32 29 29 26 14 5 8 15 24 31 39 46 48 44 42 47 51 53 59 66 65 48
10 8 11 8 4 8 8 5 11 9 8 7 4 10 11 16 16 15 21 28 24 17 19 23 22 12 10 11 14 20 25 35 46 49 49 44 51 57 48 57 57 43 41 38
3 10 4 5 9 4 9 9 10 10 11 3 8 12 11 17 33 29 21 15 10 16 17 25 13 6 7 12 18 26 37 48 55 51 48 51 52 51 45 42 40 43 45 43
6 4 6 14 14 10 9 2 7 9 6 10 11 12 2 17 15 24 35 30 29 29 24 18 9 4 13 20 28 35 46 55 52 51 55 53 57 47 44 39 42 50 48 46
9 7 12 14 11 5 7 8 8 10 7 7 11 13 9 12 16 23 20 30 36 30 25 12 5 13 21 27 34 43 52 53 54 56 53 57 47 43 38 38 49 54 45 39
9 6 3 3 4 4 5 11 13 7 12 10 15 15 12 15 17 24 23 43 35 30 16 6 11 19 27 34 42 50 51 54 59 53 55 55 35 37 34 42 56 45 36 34
6 4 3 7 10 13 11 14 15 11 5 5 15 8 8 9 25 18 42 34 28 19 8 7 14 27 29 35 46 49 54 58 57 54 62 46 33 32 36 50 49 38 32 33
8 9 6 7 8 10 8 11 12 5 11 6 9 4 6 8 12 24 32 26 17 0 10 14 23 26 33 37 42 47 53 57 55 59 60 33 29 33 38 52 40 34 34 30
11 11 6 8 6 4 9 3 1 20 9 12 14 14 7 23 24 34 22 6 3 13 19 27 25 27 32 34 38 42 50 53 54 62 39 26 30 34 46 48 38 36 30 27
13 9 5 6 4 10 3 9 6 4 5 3 10 9 25 19 13 7 5 10 15 21 26 30 27 28 31 29 36 43 47 52 57 50 29 27 32 38 52 42 39 33 25 23
13 11 10 4 6 11 10 7 9 5 9 14 8 6 8 6 6 10 13 21 25 27 30 31 28 28 29 28 32 40 50 55 52 31 25 28 34 44 45 38 34 32 23 15
3 2 11 7 6 12 11 20 1 7 13 7 9 18 4 6 7 6 11 18 22 29 31 31 33 28 27 27 33 40 49 52 44 24 22 28 31 47 36 30 30 23 16 8
13 11 6 6 4 12 7 9 10 10 4 9 19 18 7 5 2 9 15 32 40 35 32 37 35 30 24 23 31 42 48 49 34 18 20 30 38 38 30 34 20 17 13 10
1 12 11 14 11 9 4 2 7 2 9 10 11 10 14 19 27 36 35 27 24 34 36 36 35 33 22 23 32 41 46 44 25 15 23 31 41 26 31 29 19 12 13 15
10 3 6 7 9 15 25 14 8 13 19 13 14 18 18 24 31 31 30 35 36 39 30 38 39 33 24 21 34 41 47 36 19 13 26 31 24 22 31 33 23 17 17 20
2 6 6 3 9 26 20 14 10 4 8 10 10 16 18 22 26 35 38 37 41 46 34 33 37 31 21 25 31 37 41 26 16 16 26 34 15 18 29 31 25 25 27 29
5 7 6 8 2 13 12 12 7 5 5 10 10 15 19 25 31 37 40 41 46 54 40 32 35 31 22 25 26 32 32 19 16 24 31 17 16 17 20 26 31 30 29 27
Wind_Direction_850mb
355 52 275 273 228 204 113 73 72 19 356 80 8 278 328 109 119 142 153 172 181 189 177 182 204 199 191 194 209 215 223 233 249 267 286 299 288 305 304 306 306 304 302 304
7 281 240 239 214 83 70 58 358 270 30 87 359 8 34 61 123 146 162 178 185 183 186 196 194 195 199 199 207 217 220 239 285 274 273 283 305 315 315 319 323 321 316 315
169 236 216 90 34 81 57 93 51 220 340 340 60 27 44 42 107 135 159 172 182 182 192 196 190 180 197 199 207 214 215 286 288 255 293 308 312 315 328 327 325 323 319 321
208 228 85 77 69 118 47 310 25 347 39 284 86 256 334 53 57 123 152 169 177 181 190 195 199 213 199 207 208 223 252 262 272 302 310 311 322 324 319 320 319 319 320 321
281 96 95 81 141 87 252 9 328 296 236 66 31 78 279 333 49 29 131 161 175 173 185 192 195 195 196 198 217 224 233 286 317 313 316 322 319 315 316 316 314 320 324 321
200 128 102 153 42 67 348 15 22 33 79 45 345 132 303 298 167 45 69 100 139 180 185 185 169 169 186 187 193 212 297 299 306 315 318 316 317 320 320 315 320 325 325 326
3 353 64 76 50 20 52 46 354 9 11 237 338 65 218 231 172 134 118 120 134 154 172 185 191 196 207 184 189 239 278 301 296 305 310 319 323 323 317 319 324 328 329 329
103 8 7 10 116 107 72 116 138 299 298 282 337 88 232 221 99 87 85 137 133 162 165 174 183 182 173 177 198 252 267 276 309 315 323 330 329 320 319 323 327 324 323 321
100 12 5 119 86 107 322 24 180 113 11 31 287 359 5 59 70 89 86 98 129 151 177 178 171 171 178 192 220 264 302 314 322 326 330 328 319 318 324 326 324 317 316 319
192 78 38 352 74 35 128 177 26 16 311 313 312 224 223 181 173 133 111 109 104 107 107 142 162 163 172 228 284 292 303 316 324 329 329 322 319 322 322 320 320 317 319 323
112 102 291 43 35 211 0 20 61 111 130 165 313 276 218 198 180 155 134 130 136 128 127 142 150 169 223 252 280 304 319 330 331 331 329 320 318 322 320 317 324 336 333 330
57 133 142 193 278 186 164 173 126 117 269 183 155 274 294 187 173 149 146 138 103 86 102 138 145 184 259 300 312 324 328 330 330 331 329 324 327 326 330 341 342 338 331 324
186 30 46 353 351 351 49 344 121 119 79 205 141 264 338 84 122 140 126 123 124 132 137 142 148 320 315 316 320 324 327 330 331 330 328 328 330 330 338 338 335 337 333 329
96 112 152 187 205 190 327 313 305 123 122 220 218 250 187 184 164 162 153 124 129 129 123 106 5 335 319 320 323 327 331 330 329 329 329 330 332 331 339 333 339 337 335 337
89 108 94 181 295 356 291 286 302 289 215 157 252 194 184 193 190 179 160 143 128 125 110 49 343 335 324 326 328 330 329 329 329 328 327 331 336 338 337 336 339 339 341 346
28 198 85 341 339 5 316 326 327 282 237 22 71 122 244 143 143 126 145 136 134 128 65 353 340 346 325 327 331 331 329 328 327 324 328 331 336 341 336 339 340 337 344 346
123 122 84 279 331 341 2 331 300 3 27 127 82 280 102 105 124 132 144 146 139 96 329 322 337 344 335 327 328 328 326 326 323 323 329 338 344 341 338 342 344 346 346 344
136 124 113 204 25 356 240 240 278 100 68 60 50 37 128 132 135 144 151 162 270 309 315 311 319 326 320 322 321 321 324 324 324 328 335 341 342 339 342 343 342 339 342 348
142 118 90 129 181 277 293 15 358 37 345 315 132 156 129 150 167 195 277 314 321 310 298 299 301 304 310 314 320 324 324 324 328 334 344 341 338 341 343 344 343 343 343 348
49 74 118 151 133 237 235 258 266 214 287 223 39 38 310 172 28 263 286 285 290 281 285 281 278 291 300 307 322 326 324 328 334 341 347 337 338 343 342 343 341 345 351 351
148 116 179 168 201 278 224 220 9 107 242 262 337 307 19 136 190 320 310 327 313 286 279 261 263 278 286 306 324 325 329 333 340 348 349 337 345 343 347 353 350 9 9 31
184 146 181 99 143 278 199 124 167 222 187 343 12 13 62 96 27 346 346 329 330 313 274 258 254 265 277 303 324 329 333 338 343 1 351 344 347 347 359 352 358 13 30 85
253 178 181 167 211 256 176 46 162 340 76 55 25 359 338 327 332 337 335 336 346 348 284 253 256 263 273 308 326 333 340 343 353 9 350 351 345 3 11 16 25 41 63 95
343 125 80 87 325 269 260 220 176 117 90 80 17 7 8 354 339 336 337 328 323 326 309 267 256 260 279 317 331 335 343 350 15 3 353 351 358 28 30 29 37 67 75 93
249 52 133 341 344 75 87 122 139 78 37 12 12 346 349 346 345 343 338 324 316 320 316 273 256 262 282 324 331 338 347 360 19 350 353 351 17 39 32 37 57 78 85 87
168 177 145 200 167 128 119 108 86 54 47 71 48 17 6 358 352 346 341 328 320 312 287 259 254 257 292 318 327 341 350 13 14 358 357 18 45 44 49 55 68 87 95 88